{"data":{"norad_id":68493,"epoch":"2026-09-19T03:45:17.439840Z","epoch_age_seconds":185817,"freshness":"STALE","line1":"1 68493U 26067CF  26262.15645185  .00004600  00000+0  45372-3 0  9997","line2":"2 68493  97.7751 219.1157 0005304  76.8410 283.3401 14.92478880 25731","mean_motion":14.9247888,"eccentricity":0.0005304,"inclination_deg":97.7751,"raan_deg":219.1157,"arg_perigee_deg":76.841,"mean_anomaly_deg":283.3401,"bstar":0.00045372,"rev_number":2573,"period_min":96.483777378478,"perigee_km":586.51307390682,"apogee_km":593.90509543344,"semimajor_km":6968.3460846701,"source":"CELESTRAK","updated_at":"2026-09-20T09:00:24.255424Z"}}